Simultaneous Nadir Overpasses (SNOs) Predictions

Prediction of SNOs between GOES-15 and NPP Satellite Orbit:

Table of predicted SNOs for the next 14.0 days since TLE Epoch: 2/24/2024
Index Date Time (GOES-15) GOES-15 Lat,Lon NPP Lat,Lon Distance(km) Time Diff (sec)
1 02/24/2024 21:05:53 0.03, 61.30 -0.70, 64.44 358.22 80
2 02/26/2024 09:27:47 -0.03, 61.38 -0.54, 59.15 253.71 80
3 02/27/2024 09:11:42 -0.03, 61.37 0.47, 63.69 263.87 80
4 02/28/2024 21:33:29 0.03, 61.27 0.66, 58.42 325.42 80
5 02/29/2024 21:12:04 0.03, 61.27 -0.35, 62.95 191.62 80
6 03/02/2024 09:36:38 -0.04, 61.36 -0.87, 57.66 421.61 80
7 03/03/2024 09:17:53 -0.03, 61.36 0.15, 62.20 95.11 80
8 03/04/2024 21:39:39 0.04, 61.27 1.04, 56.93 495.32 80
9 03/05/2024 21:18:13 0.04, 61.28 0.02, 61.47 21.01 80
10 03/08/2024 09:24:02 -0.05, 61.39 -0.20, 60.71 77.59 80
